Lid_Strength_Index
12 12 12 12 12 12 12 14 14 15 15 16 16 16 16 17 17 17 16 16 16 16 16 16 16 16 15 15 14 14 14 14
12 12 13 13 14 14 14 15 16 16 16 17 17 17 17 17 17 17 16 16 16 16 16 16 16 15 15 15 15 15 15 15
12 13 14 14 15 15 16 16 16 16 17 17 17 17 18 17 17 17 17 17 17 16 16 15 15 15 15 16 15 15 16 15
13 14 14 14 15 16 16 17 17 17 17 17 17 18 18 18 17 17 17 17 16 16 16 15 15 15 15 15 16 15 15 15
13 14 14 15 16 17 17 17 17 17 17 18 18 18 18 18 17 17 17 17 17 16 16 15 15 15 15 15 16 15 15 15
13 14 16 17 17 17 17 18 17 18 18 18 18 18 18 18 18 17 17 17 17 17 16 16 15 14 15 15 16 16 16 15
14 15 16 17 17 17 18 18 17 18 18 18 18 18 18 18 18 18 17 17 17 17 16 16 15 13 13 14 16 16 16 17
14 15 15 16 16 17 17 17 18 18 18 18 18 18 18 18 18 18 18 17 17 17 17 17 16 14 14 14 16 17 17 17
14 15 15 16 16 17 17 18 18 18 18 18 18 18 18 18 19 18 18 17 17 17 17 17 16 14 14 15 17 17 17 17
13 14 15 16 16 17 17 18 18 18 18 18 18 18 18 19 19 18 18 18 18 16 17 17 17 16 15 16 17 17 17 17
15 15 16 17 17 17 18 18 18 18 18 18 18 18 19 19 18 17 17 17 16 17 17 17 18 17 16 16 17 18 17 17
14 15 15 17 16 17 17 18 18 18 18 19 19 18 18 18 18 18 18 18 18 18 18 18 18 18 16 16 17 18 18 18
16 15 16 17 16 17 18 18 19 19 19 19 20 18 18 19 18 18 19 20 20 20 19 19 18 17 17 16 16 16 18 18
16 18 17 17 17 17 18 19 20 20 21 21 20 18 18 20 20 21 20 21 21 20 21 21 19 19 18 17 16 16 17 17
18 19 19 19 17 17 19 19 22 22 21 21 21 21 21 20 20 21 23 23 21 22 23 23 22 21 20 19 18 17 17 16
18 18 20 20 20 21 21 22 22 22 21 21 21 23 22 21 22 21 21 21 25 25 24 26 25 22 17 17 18 18 16 19
20 20 21 22 23 24 24 23 23 22 22 23 23 24 23 24 24 20 18 17 17 17 19 21 18 16 16 16 15 15 15 24
19 21 22 23 24 27 27 26 26 25 24 25 24 25 25 25 25 26 24 20 19 18 18 17 17 17 16 16 16 18 20 32
22 23 23 24 25 27 29 29 29 28 25 25 25 26 26 26 25 26 27 27 26 23 21 19 18 18 17 17 21 27 28 33
25 27 26 26 25 28 28 27 28 27 27 28 27 25 25 26 26 27 28 28 28 28 24 23 20 19 18 18 29 29 29 30